{"data":{"norad_id":62193,"intl_designator":"2024-229B","name":"STARLINK-32688","alt_names":[],"object_type":"PAYLOAD","status":"ACTIVE","operator":null,"country":"US","launch_date":"2024-12-04","launch_site_code":"AFETR","launch_vehicle":null,"mission":null,"orbit_class":"UNKNOWN","rcs_meters":null,"size_class":null,"mass_kg":null,"dimensions":null,"purposes":["comms"],"wikipedia_slug":null,"has_3d_model":false,"image_url":null,"decayed_at":null,"tle_current":{"epoch":"2026-09-21T16:08:11.179104Z","epoch_age_seconds":76424,"freshness":"FRESH","line1":"1 62193U 24229B   26264.67235161  .00008800  00000+0  32887-3 0  9997","line2":"2 62193  43.0062 243.9754 0003007 267.6525  92.3982 15.27585750100532","mean_motion":15.2758575,"eccentricity":0.0003007,"inclination_deg":43.0062,"raan_deg":243.9754,"arg_perigee_deg":267.6525,"mean_anomaly_deg":92.3982,"bstar":0.00032887,"rev_number":10053,"period_min":94.266393883289,"perigee_km":480.96872504334,"apogee_km":485.09503200688,"semimajor_km":6861.1688785251,"source":"CELESTRAK","updated_at":"2026-09-22T09:00:49.539047Z"}}}